Погода в Зиме

Погода в Зиме : погода сейчас, прогноз погоды и архив. Всё, что Вы хотите узнать о погоде в Зиме!

Поиск расширенной информации на нашем сайте:

Другие новости

Новости СМИ2

Главная страница сайта

Новости сайта

03.07.2017

Напоминаем, что на нашем специализированном сайте Метеоцентр.Азия вы можете получить высокодетализированные автоматические прогнозы погоды по пунктам России, СНГ и мира в авиационном формате (включающие направление и скорость ветра, видимость, явления погоды, количество и форму облачности, нижнюю и верхнюю границу облачности).

Рекомендуем: Воздушная завеса Wing E150

Погода в Зиме - сегодня

Время (UTC), дата Ветер
(°,м/с) 
Видим.   Явления Облачность Т
(°С)
Тd
(°С)
f(%) Тe
(°С)
Pmin
(гПа)
dP
(гПа)
Po
(мм)
O2
(г/м3)
Тmin Tmax R s Состояние
почвы
00 17.10.17 220 (ЮЗ) 20000 м    10/4 1000 м средняя, верхняя 
[Sc|Ac trans|Ci fib]
-0.6 -2.7 86 1021.5  724  292  -1         
03 17.10.17 210 (ЮЗ) 20000 м    10/0 средняя, верхняя 
[Ac trans|Ci fib]
+5.3 -1.9 60 +6  1021.5  1.1  725  287           
06 17.10.17 280 (З) 20000 м    10/0 средняя 
[As trans]
+9 +1.1 58 +9  1020.9  0.2  725  282           
09 17.10.17 290 (З) 20000 м    10/3 1000 м средняя, верхняя 
[Sc|Ac trans|Cs]
+8 +1.8 65 +8  1022  0.9  725  284           
12 17.10.17 250 (З) н/о    10/4 1000 м средняя, верхняя 
[Sc|Ac trans|Ci fib]
+4.8 +1.4 79 +6  1024.8  727  288    +9.1       
15 17.10.17 тихо ()   н/о    10/5 1000 м верхняя 
[Sc|Ci fib]
+2.2 +0.7 90 +2  1026.6  1.1  728  291           
18 17.10.17 080 (В) н/о    3/0 верхняя 
[Ci fib]
-0.5 -0.9 97 1027.1  728  294           
21 17.10.17 тихо ()   н/о    10/4 1000 м верхняя 
[Sc|Ci fib]
-1.3 -1.5 99 -1  1027.3  728  295           
00 18.10.17 тихо ()   20000 м    9/9 1000 м 
[Sc]
-1.1 -1.4 98 -1  1027.4  0.2  728  295  -1.6         
03 18.10.17 030 (СВ) 20000 м    10/6 600 м верхняя 
[Cu Sc|Ci fib]
+4.3 +1.6 83 +4  1026.2  -0.1  728  288           
06 18.10.17 130 (ЮВ) 20000 м    8/6 600 м верхняя 
[Cu med, cong|Ci fib]
+7.3 +0.5 62 +8  1023.8  -1.7  726  285           
09 18.10.17 050 (СВ) 20000 м    6/6 600 м 
[Cu Sc]
+7.1 +0.3 62 +8  1021.9  -1.8  725  285           
12 18.10.17 030 (СВ) н/о    ясно 
+1 -0.8 88 +2  1022.6  -0.6  725  291    +8       
15 18.10.17 340 (С) н/о    ясно 
-2.2 -2.5 98 -2  1022.2  -0.9  724  294           
18 18.10.17 350 (С) н/о    ясно 
-3.7 -3.8 99 -3  1021.3  -1.3  723  296           
21 18.10.17 320 (СЗ) н/о    ясно 
-4.5 -4.7 98 -4  1020.6  -0.8  722  296           
00 19.10.17 тихо ()   20000 м    10/0 средняя, верхняя 
[Ac trans|Ci fib]
-3.7 -3.9 99 -4  1021.4  0.9  723  296  -5.7         
03 19.10.17 тихо ()   20000 м    9/9 1000 м 
[Sc]
-1.1 -2.4 91 -1  1022.1  1.2  724  293           
06 19.10.17 130 (ЮВ) 20000 м    10/6 1000 м средняя, верхняя 
[Sc|Ac trans|Ci fib]
+5.5 -1 63 +6  1021.1  0.4  724  286           
09 19.10.17 010 (С) 20000 м    3/0 верхняя 
[Ci fib]
+6.4 -1.8 56 +7  1021.1  0.1  724  285           
12 19.10.17 тихо ()   н/о    ясно 
-1 -3.5 83 -1  1024.4  1.6  726  294    +7.2       
15 19.10.17 тихо ()   н/о    ясно 
-4.7 -4.9 98 -5  1026.3  1.1  726  298           
18 19.10.17 тихо ()   н/о    ясно 
-6.4 -6.5 99 -6  1026.6  0.1  726  300           
21 19.10.17 110 (В) н/о    ясно 
-6.3 -6.4 99 -6  1026.8  0.2  727  300           
00 20.10.17 240 (ЮЗ) 0500 м  туман  ясно 
-7.7 -8 98 -7  1026.3  -0.8  726  302  -7.8         
Время (UTC), дата Ветер
(°,м/с) 
Видим.   Явления Облачность Т
(°С)
Тd
(°С)
f(%) Тe
(°С)
Pmin
(гПа)
dP
(гПа)
Po
(мм)
O2
(г/м3)
Тmin Tmax R s Состояние
почвы

Для получения пояснительной информации подведите курсор к названию столбца.

ПОГОДА в Зиме - архив

Всё, что Вы хотите узнать о погоде в Зиме - удобно и подробно!

Выберите нужную дату (начиная с 1 января 2015* года) и нажмите кнопку "Найти".
Будут отображены архивные сводки погоды по пункту Зима, начиная с указанной даты.


Отображать данные в формате CSV (для использования в таблицах Excel)


Внимание! Наш архив погоды предназначен исключительно для личного некоммерческого использования в познавательных целях. Если Вам необходимы официальные справки о состоянии погоды (для производственных, юридических, коммерческих и т.п. целей), обращайтесь в органы Росгидромета.

*Примечание: данная дата относится к архиву по метеостанциям СССР (Россия, СНГ, Балтия).
Архив по метеостанциям Зарубежной Европы и Азии (кроме Китая) хранится 10 дней, по другим регионам земного шара (Китай, Африка, Америка, Австралия, Океания) - 1 день.

Зима - район местоположения метеостанции


Название, широта, долгота, высота метеостанции:
Зима 53.9°ш. 102.1°д. 458 м над ур. моря [Российская Федерация]

Дополнительная информация

В oтличие oт бoльшинства пoгoдных сайтoв мы публикуем пoдрoбную метеoинфoрмацию в детальнoм прoфессиoнальнoм фoрмате.

Характеристики температуры и влажнoсти вoздуха измеряются на высoте 2 м в тени вдали oт зданий и деревьев.
Скoрoсть ветра измеряется на высoте 10 м (на урoвне рoста челoвека скoрoсть ветра ниже в 1.5-2 раза). Если метеoстанция нахoдится в гoрoде или в лесу, тo скoрoсть ветра занижена на 2-4 м/с пo сравнению с oткрытым местoм. Скoрoсть ветра над акватoриями крупных рек и oзёр, а также на вершинах хoлмoв на 2-5 м/с выше, чем в oбычных услoвиях.
Атмoсфернoе давление в разных тoчках местнoсти мoжет значительнo oтличаться oт давления на метеoстанции, в зависимoсти oт услoвий рельефа (при пoдъёме на 10 м давление пoнижается примернo на 1 мм рт.ст.).